Wind_Speed
11 10 9 9 9 9 10 10 12 14 15 16 17 17 17 15 13 10 8 7 5 2 3 6 10 13 16 17 17 18 18 18 16 13 11 10 9 9 8 7 6 4 3 3
11 10 11 10 10 10 10 11 13 15 15 15 14 14 14 13 11 9 7 6 4 1 2 5 8 12 14 15 16 17 18 17 15 12 11 10 8 8 7 6 5 4 3 2
12 12 12 11 10 10 10 11 13 14 14 13 12 12 12 12 9 8 7 5 3 2 4 5 6 9 12 15 17 17 17 16 14 12 11 11 9 7 7 5 4 3 3 2
14 13 12 11 11 10 10 11 12 13 13 13 11 11 11 10 8 7 6 5 2 1 2 5 6 7 11 15 15 15 15 14 13 12 11 10 9 8 7 6 4 3 2 1
14 14 13 12 12 11 11 12 12 12 12 11 10 9 10 9 8 6 4 3 1 1 2 3 5 6 10 12 13 13 13 13 12 12 11 10 9 8 7 6 4 3 2 1
15 14 14 13 12 11 11 11 11 11 10 10 10 8 9 8 7 6 4 3 1 1 2 3 4 6 9 10 11 12 12 11 11 11 11 10 9 8 8 6 5 3 2 1
15 15 14 14 13 12 11 10 10 10 9 10 10 8 8 7 6 5 4 3 1 1 2 4 5 6 8 10 10 11 11 11 11 11 10 10 9 9 8 6 5 4 3 2
16 15 15 14 13 13 11 10 9 9 9 10 11 9 8 7 6 5 4 3 1 2 2 3 5 6 8 9 10 10 10 10 11 11 10 10 9 9 8 6 5 4 4 4
17 16 16 15 14 13 12 11 11 10 9 9 10 10 9 8 7 6 5 4 2 3 3 4 5 6 8 9 9 10 10 10 10 10 10 10 9 8 8 7 7 6 6 7
20 18 17 16 15 14 13 13 12 10 10 9 10 10 10 10 8 7 7 5 4 4 4 4 5 7 8 8 9 10 10 10 10 10 10 10 10 9 9 9 9 9 9 10
21 20 19 18 17 15 15 14 14 13 13 10 10 11 12 11 10 8 7 7 6 5 6 6 7 7 8 9 9 10 10 11 11 11 11 11 11 11 11 11 12 12 12 13
23 22 21 19 19 19 18 16 15 15 15 13 11 12 14 12 11 10 9 9 8 8 8 8 8 9 9 10 10 10 11 12 12 12 13 13 13 13 13 14 14 14 15 15
25 25 22 20 20 20 19 18 17 17 16 15 12 13 15 13 12 11 10 10 10 10 10 9 10 10 11 11 12 12 13 13 14 14 14 15 15 16 16 17 17 18 18 19
26 26 24 21 19 19 19 18 18 18 16 14 14 14 15 14 13 12 12 12 12 11 11 11 11 12 12 12 13 14 14 15 16 16 17 17 18 19 19 20 20 21 21 22
27 27 25 24 22 21 20 18 18 17 16 15 14 15 15 15 15 14 14 13 13 13 13 13 13 13 14 14 15 16 16 17 18 19 20 20 21 21 22 22 23 23 24 24
26 25 24 24 24 22 21 19 18 18 18 16 15 15 17 18 17 16 15 15 15 15 15 15 15 15 16 17 17 18 19 19 20 21 22 22 23 23 24 25 25 26 26 27
27 25 23 22 22 21 19 18 18 19 19 18 16 16 17 18 19 18 17 16 16 17 16 16 16 17 17 18 19 20 21 22 22 23 24 25 25 26 26 27 28 28 29 29
26 26 25 22 22 22 18 18 19 18 18 19 18 18 18 18 18 19 19 18 18 18 18 18 18 18 19 20 21 22 23 24 25 26 26 27 28 28 29 29 29 30 30 30
25 25 24 24 23 21 20 19 18 18 17 18 18 18 18 18 18 19 20 19 20 20 20 20 20 21 22 22 23 25 25 26 27 28 29 30 30 30 30 31 31 32 31 31
24 26 26 24 23 21 21 20 19 19 18 18 19 19 20 19 20 21 21 21 21 22 22 22 23 24 25 26 27 27 27 28 30 31 32 32 32 32 32 33 33 33 32 32
24 25 25 23 21 21 22 20 19 19 20 19 20 21 21 21 21 22 22 22 22 23 24 24 25 26 27 28 28 28 28 30 31 32 33 33 33 33 34 34 34 34 34 34
22 23 23 22 22 22 22 21 22 21 21 21 22 22 22 22 23 23 24 24 24 24 25 26 27 28 28 29 29 30 30 31 32 33 33 33 34 35 35 34 35 35 36 37
22 22 23 22 22 23 22 23 23 23 22 22 22 23 23 24 24 25 25 26 26 26 26 27 28 29 30 30 30 32 32 33 33 34 34 34 35 35 36 36 37 38 39 39
22 22 21 21 23 24 24 23 23 23 22 22 22 24 24 24 25 25 26 28 28 28 28 29 29 29 30 31 31 32 33 34 35 35 35 35 36 37 37 38 38 39 40 41
20 20 20 21 22 22 23 23 23 23 23 23 23 23 24 25 26 26 27 28 29 30 31 31 31 32 32 33 33 34 35 36 36 36 36 36 37 38 39 39 40 41 42 43
20 20 20 21 21 21 20 21 22 22 21 23 23 24 24 25 26 27 28 29 30 31 31 32 33 33 33 34 34 35 36 36 37 37 38 38 39 40 41 41 42 43 44 45
Wind_Direction
278 277 282 283 293 298 301 305 307 310 314 318 320 322 326 329 327 329 327 330 326 301 218 209 202 197 196 201 204 201 200 201 205 208 212 212 213 211 214 222 217 212 221 240
266 267 272 281 291 297 300 304 306 311 315 319 322 325 330 334 335 337 335 328 320 285 180 184 190 191 196 199 196 197 198 202 205 207 212 213 212 205 209 201 197 199 211 229
255 257 267 275 286 293 298 300 303 311 316 319 323 329 336 338 339 338 339 337 325 218 186 181 180 188 195 190 189 192 196 199 202 206 213 215 211 204 199 197 193 189 193 198
249 254 260 267 276 283 291 297 303 311 318 319 324 332 337 340 341 339 341 344 340 262 185 176 179 184 186 187 190 196 200 201 201 203 204 201 197 191 189 183 180 185 185 184
246 249 253 260 268 276 283 295 303 310 315 318 322 329 331 335 336 334 333 343 335 239 181 173 170 174 180 187 192 195 195 194 195 196 195 194 193 193 190 181 180 184 189 180
240 244 249 257 265 272 282 294 302 309 317 316 316 321 325 328 332 328 320 318 304 166 149 169 177 179 179 182 183 183 187 190 194 196 196 193 190 187 183 182 188 195 202 220
239 243 249 255 262 268 278 295 311 314 313 304 305 308 314 318 319 323 325 322 295 189 180 181 181 179 180 182 181 183 186 189 190 192 190 188 184 183 183 187 196 206 214 240
235 242 249 251 257 263 272 283 283 284 290 295 303 300 300 304 305 308 315 323 290 216 194 185 183 180 178 179 179 181 187 187 186 186 186 186 187 188 191 198 212 224 237 259
232 237 245 248 253 259 266 272 276 283 291 296 297 300 292 290 289 288 290 296 284 234 213 201 195 190 185 185 187 189 191 191 191 191 192 195 196 200 208 219 230 240 254 268
233 236 241 246 252 257 264 267 273 275 280 287 293 296 294 287 281 277 272 268 260 240 223 216 208 203 198 198 199 199 201 201 202 203 204 207 211 217 225 235 243 253 264 272
233 236 242 246 249 257 262 264 266 267 269 273 280 283 281 281 276 270 260 255 249 239 233 226 222 216 212 211 212 212 212 212 214 216 218 221 225 230 239 246 252 258 265 272
233 238 243 249 252 252 257 261 264 267 272 273 272 278 276 273 272 268 261 254 252 247 242 235 230 224 220 220 222 222 222 223 224 227 229 232 235 240 247 252 257 262 267 273
233 238 243 252 258 256 256 260 264 265 266 267 268 274 275 266 264 264 262 257 255 252 250 242 234 229 228 229 230 232 233 234 234 236 238 241 244 248 252 257 262 266 270 274
234 238 241 245 251 256 257 259 262 261 261 264 263 259 266 261 260 259 259 256 254 253 250 244 240 238 238 239 240 240 241 242 243 244 246 248 252 255 258 262 265 268 271 275
240 242 241 243 247 253 256 258 261 258 258 256 258 258 256 254 257 257 256 253 251 254 254 251 249 246 244 244 246 246 246 246 247 249 251 253 257 260 262 265 267 270 274 277
241 246 245 247 248 248 251 256 259 257 257 255 255 254 249 250 252 254 254 252 250 252 253 252 252 253 250 248 249 250 250 251 252 254 256 258 261 263 265 267 269 272 275 278
241 242 245 246 244 245 249 252 257 256 253 254 254 252 249 252 252 252 252 251 251 251 253 253 254 256 256 254 254 256 257 257 258 260 262 264 265 266 267 269 272 274 277 279
240 241 240 240 242 247 249 252 253 251 250 252 253 253 252 252 251 251 251 250 249 250 253 254 257 260 261 260 260 260 262 263 264 265 266 267 268 269 270 272 274 276 278 280
238 238 235 233 239 245 248 249 250 250 250 249 250 249 249 250 250 249 249 248 248 249 252 255 258 261 262 262 263 263 263 265 266 267 268 268 269 270 272 273 275 276 278 281
233 233 233 235 237 242 245 246 248 249 250 249 249 250 250 250 249 247 246 246 248 252 254 258 259 260 261 261 263 265 266 266 267 268 268 269 270 271 272 274 276 277 279 281
233 233 233 236 241 243 243 243 245 247 248 247 249 250 250 248 246 247 247 248 249 253 255 258 260 260 261 263 264 265 267 268 268 268 270 269 269 272 274 276 276 278 280 283
233 232 233 236 239 242 244 245 244 245 247 247 248 250 249 248 246 247 248 249 250 253 257 260 261 261 263 264 263 264 267 269 271 272 273 273 272 273 275 278 279 280 283 285
232 232 233 235 241 246 246 245 245 247 249 250 250 249 249 250 249 248 249 250 251 253 256 260 262 265 265 265 266 267 267 269 271 271 272 273 274 275 276 278 280 282 284 285
231 235 239 241 242 247 247 248 249 250 252 251 251 249 248 248 249 249 250 252 253 256 259 261 264 265 266 266 268 270 273 273 273 272 272 274 275 277 279 280 282 283 285 286
235 237 239 241 245 250 248 249 250 251 251 249 251 251 249 250 251 253 254 256 256 258 261 263 264 267 269 270 270 272 274 273 272 273 275 276 278 279 280 280 281 283 285 286
238 240 243 244 246 249 248 250 252 252 252 250 251 252 252 255 257 258 259 259 259 260 261 264 268 270 272 272 272 273 273 274 275 276 277 278 279 280 281 282 283 284 285 286
Height
5885 5886 5885 5885 5884 5884 5883 5882 5881 5878 5875 5873 5870 5866 5863 5860 5857 5854 5852 5850 5848 5847 5846 5846 5847 5849 5852 5855 5858 5861 5864 5868 5870 5872 5874 5876 5877 5878 5879 5880 5880 5881 5882 5882
5882 5883 5882 5882 5881 5881 5880 5879 5878 5875 5873 5870 5868 5865 5862 5858 5856 5853 5851 5849 5848 5847 5846 5846 5847 5849 5851 5854 5857 5860 5863 5866 5869 5871 5873 5875 5876 5877 5878 5879 5880 5880 5881 5882
5879 5880 5879 5879 5879 5879 5878 5877 5875 5873 5870 5868 5866 5864 5861 5858 5856 5853 5851 5849 5848 5847 5847 5847 5848 5850 5852 5854 5857 5859 5862 5865 5868 5870 5872 5874 5875 5876 5877 5878 5879 5880 5880 5880
5875 5876 5876 5876 5876 5876 5876 5874 5873 5870 5869 5867 5866 5864 5861 5858 5856 5854 5852 5850 5849 5848 5848 5847 5848 5849 5851 5854 5856 5859 5862 5864 5867 5869 5871 5873 5874 5875 5877 5878 5879 5879 5880 5880
5871 5872 5873 5873 5874 5873 5872 5871 5870 5868 5867 5866 5864 5863 5862 5858 5856 5854 5852 5851 5850 5849 5849 5849 5849 5850 5852 5854 5856 5859 5861 5864 5866 5868 5870 5872 5873 5875 5876 5877 5878 5879 5879 5879
5868 5868 5869 5870 5870 5870 5869 5869 5868 5866 5866 5865 5863 5862 5861 5857 5856 5854 5852 5851 5850 5850 5850 5850 5851 5852 5853 5855 5856 5859 5861 5864 5866 5868 5870 5871 5873 5875 5876 5877 5878 5878 5878 5878
5864 5865 5866 5867 5867 5867 5867 5867 5868 5867 5866 5865 5862 5860 5860 5857 5855 5853 5852 5851 5851 5851 5851 5851 5851 5852 5854 5856 5857 5860 5861 5863 5865 5867 5869 5871 5872 5874 5875 5876 5877 5877 5877 5877
5861 5863 5863 5863 5864 5864 5864 5865 5866 5866 5865 5863 5860 5858 5858 5856 5854 5853 5852 5851 5851 5851 5851 5851 5852 5852 5854 5856 5858 5860 5862 5863 5865 5867 5868 5870 5871 5873 5874 5875 5875 5875 5875 5875
5858 5860 5860 5859 5860 5861 5861 5861 5862 5861 5861 5861 5860 5857 5855 5854 5853 5853 5852 5852 5851 5851 5852 5852 5852 5853 5855 5856 5858 5860 5862 5863 5865 5866 5868 5869 5870 5871 5872 5873 5874 5874 5874 5873
5853 5855 5856 5855 5856 5857 5858 5858 5857 5858 5858 5859 5858 5856 5855 5852 5852 5851 5851 5851 5851 5851 5851 5852 5852 5853 5855 5856 5858 5860 5861 5863 5864 5865 5867 5868 5869 5870 5871 5871 5871 5871 5871 5871
5848 5850 5852 5852 5853 5854 5854 5854 5854 5855 5855 5855 5856 5857 5851 5850 5850 5849 5849 5850 5850 5850 5851 5851 5852 5853 5854 5856 5857 5859 5860 5861 5863 5864 5865 5866 5867 5868 5868 5869 5869 5869 5868 5868
5843 5845 5847 5848 5848 5849 5849 5850 5850 5851 5851 5850 5851 5854 5848 5847 5847 5847 5847 5847 5848 5849 5849 5850 5851 5852 5853 5854 5856 5857 5858 5860 5861 5862 5863 5864 5864 5865 5865 5865 5865 5865 5865 5864
5837 5840 5842 5844 5845 5844 5844 5845 5846 5846 5846 5846 5848 5851 5844 5844 5844 5844 5844 5844 5845 5846 5847 5848 5849 5850 5851 5852 5854 5855 5856 5857 5858 5859 5860 5861 5861 5861 5862 5862 5862 5861 5860 5859
5831 5833 5837 5840 5839 5839 5839 5840 5840 5841 5841 5842 5843 5844 5842 5840 5840 5841 5841 5841 5842 5843 5844 5845 5846 5847 5848 5850 5851 5852 5853 5854 5855 5856 5856 5857 5857 5857 5857 5857 5857 5856 5855 5854
5824 5827 5829 5831 5832 5833 5834 5835 5835 5835 5836 5838 5838 5838 5838 5837 5836 5837 5837 5838 5839 5840 5841 5842 5843 5844 5845 5846 5847 5848 5849 5850 5851 5851 5852 5852 5852 5852 5852 5852 5851 5850 5849 5848
5817 5820 5822 5824 5825 5826 5827 5829 5829 5830 5831 5832 5832 5833 5832 5831 5832 5832 5833 5834 5835 5836 5837 5838 5839 5840 5841 5842 5843 5844 5845 5845 5846 5846 5847 5847 5847 5847 5846 5846 5845 5844 5843 5841
5811 5813 5816 5818 5819 5820 5822 5823 5823 5824 5825 5826 5827 5828 5827 5827 5827 5828 5828 5829 5830 5832 5832 5833 5834 5835 5836 5837 5838 5839 5839 5840 5840 5841 5841 5841 5841 5841 5840 5839 5838 5837 5836 5834
5804 5806 5809 5811 5814 5815 5819 5817 5817 5818 5819 5820 5821 5821 5821 5822 5822 5823 5824 5825 5826 5827 5828 5828 5829 5830 5831 5832 5832 5833 5834 5834 5835 5835 5835 5835 5834 5834 5833 5832 5831 5830 5828 5826
5797 5800 5802 5805 5807 5809 5811 5811 5812 5812 5813 5814 5814 5815 5816 5816 5817 5818 5819 5820 5821 5822 5823 5823 5824 5825 5825 5826 5826 5827 5827 5828 5828 5828 5828 5827 5827 5826 5825 5824 5823 5821 5820 5818
5790 5793 5796 5798 5800 5803 5805 5805 5805 5808 5808 5808 5809 5809 5810 5811 5812 5813 5813 5814 5815 5816 5817 5818 5818 5819 5820 5820 5820 5820 5820 5820 5820 5820 5819 5819 5818 5817 5816 5815 5814 5812 5811 5809
5784 5787 5789 5791 5794 5796 5797 5799 5800 5803 5803 5802 5803 5803 5804 5805 5806 5807 5807 5808 5809 5810 5811 5811 5812 5812 5813 5813 5813 5813 5813 5813 5812 5812 5811 5810 5809 5808 5807 5805 5804 5803 5801 5800
5778 5780 5783 5785 5787 5791 5790 5792 5794 5794 5794 5795 5796 5797 5798 5798 5799 5800 5801 5802 5803 5804 5804 5805 5804 5804 5805 5805 5805 5805 5805 5804 5804 5803 5802 5801 5800 5799 5798 5796 5795 5793 5791 5789
5772 5774 5776 5779 5782 5782 5783 5784 5785 5787 5787 5788 5789 5790 5791 5792 5793 5794 5795 5795 5796 5797 5797 5797 5797 5798 5797 5797 5797 5797 5796 5796 5795 5794 5793 5792 5791 5790 5788 5787 5785 5783 5781 5778
5765 5767 5769 5771 5773 5774 5776 5777 5778 5779 5780 5781 5782 5783 5784 5785 5786 5786 5787 5788 5788 5789 5790 5790 5790 5790 5789 5789 5788 5788 5788 5787 5786 5785 5784 5782 5781 5780 5778 5776 5774 5772 5769 5767
5760 5762 5763 5765 5767 5768 5769 5770 5771 5772 5773 5774 5775 5776 5776 5777 5778 5779 5780 5780 5781 5781 5782 5781 5781 5781 5781 5780 5779 5779 5778 5776 5776 5775 5773 5772 5771 5769 5767 5765 5763 5761 5758 5755
5754 5756 5758 5759 5760 5762 5763 5764 5765 5766 5766 5767 5768 5768 5769 5770 5771 5771 5772 5772 5773 5773 5773 5773 5772 5772 5771 5771 5770 5769 5768 5767 5766 5764 5763 5761 5759 5757 5755 5753 5751 5748 5746 5743